De Queen, AR

11:58 AM CDT on May 26, 2017 (GMT -0500)
Helms Sevier County

Weather History for KDEQ - October, 2011

Change the Weather History Date:

Sunday, October 23, 2011

  Actual Average Record
Temperature  
Mean Temperature 64 °F 61 °F  
Max Temperature 77 °F 74 °F 93 °F (1939)
Min Temperature 51 °F 48 °F 28 °F (1937)
Degree Days  
Heating Degree Days 1 5  
Month to date heating degree days 76 73  
Since 1 July heating degree days 80 82  
Cooling Degree Days 0 2  
Month to date cooling degree days 52 60  
Year to date cooling degree days 2489 1925  
Growing Degree Days 14 (Base 50)    
Moisture  
Dew Point 57 °F    
Average Humidity 75    
Maximum Humidity 100    
Minimum Humidity 50    
Precipitation  
Precipitation 0.39 in 0.16 in 2.14 in (2015)
Month to date precipitation 1.94 3.45  
Year to date precipitation 27.71 38.65  
Snow  
Snow 0.00 in - - ()
Month to date snowfall 0.0  
Since 1 July snowfall 0.0  
Since 1 September snowfall 0.0  
Snow Depth 0.00 in    
Sea Level Pressure  
Sea Level Pressure 30.02 in    
Wind  
Wind Speed 2 mph (NNW)    
Max Wind Speed 9 mph    
Max Gust Speed 14 mph    
Visibility 7 miles    
Events Fog , Rain , Thunderstorm    
T = Trace of Precipitation, MM = Missing Value Source: NWS Daily Summary

Daily Weather History Graph

Daily Weather History Graph

Search for Another Location

Airport or City:

Trip Planner

Search our weather history database for the weather conditions in past years. The results will help you decide how hot, cold, wet, or windy it might be!

Date:

Astronomy

Oct. 23, 2011 Rise Set
Actual Time 7:29 AM CDT 6:34 PM CDT
Civil Twilight 7:03 AM CDT 6:59 PM CDT
Nautical Twilight 6:34 AM CDT 7:28 PM CDT
Astronomical Twilight 6:05 AM CDT 7:57 PM CDT
Moon 3:46 AM CDT (10/23) 4:18 PM CDT (10/23)
Length of Visible Light 11h 56m
Length of Day
11h 05m
Waning Crescent, 14% of the Moon is Illuminated
Oct 23
Waning Crescent
Oct 26
New
Nov 2
First Quarter
Nov 10
Full
Nov 18
Last Quarter

Hourly Weather History & Observations

Time (CDT) Temp. Dew Point Humidity Pressure Visibility Wind Dir Wind Speed Gust Speed Precip Events Conditions
12:07 AM 66.2 °F 59.0 °F 78% 29.94 in 10.0 mi ENE 6.9 mph - 0.00 in Rain , Thunderstorm Light Thunderstorms and Rain
12:24 AM 64.4 °F 60.8 °F 88% 29.98 in 2.5 mi NW 19.6 mph 28.8 mph 0.20 in Rain , Thunderstorm Heavy Thunderstorms and Rain
12:46 AM 62.6 °F 60.8 °F 94% 30.02 in 3.0 mi WNW 18.4 mph 28.8 mph 0.40 in Rain , Thunderstorm Heavy Thunderstorms and Rain
12:53 AM 62.1 °F 59.0 °F 90% 30.02 in 5.0 mi NW 13.8 mph 28.8 mph 0.42 in Rain , Thunderstorm Heavy Rain
1:00 AM 60.8 °F 59.0 °F 94% 30.02 in 6.0 mi NNW 13.8 mph 21.9 mph 0.02 in Rain , Thunderstorm Rain
1:53 AM 60.1 °F 57.9 °F 93% 29.96 in 7.0 mi ENE 10.4 mph - 0.29 in Rain , Thunderstorm Rain
2:13 AM 60.8 °F 57.2 °F 88% 29.97 in 10.0 mi NE 8.1 mph - 0.08 in Rain , Thunderstorm Rain
2:41 AM 60.8 °F 57.2 °F 88% 29.90 in 10.0 mi ENE 13.8 mph 19.6 mph 0.12 in Rain Light Rain
2:53 AM 60.1 °F 57.9 °F 93% 29.90 in 10.0 mi NE 9.2 mph 19.6 mph 0.12 in Rain Light Rain
3:53 AM 57.9 °F 57.0 °F 97% 29.94 in 10.0 mi SSW 5.8 mph - 0.00 in   Partly Cloudy
4:05 AM 57.2 °F 57.2 °F 100% 29.95 in 10.0 mi Calm Calm - N/A   Mostly Cloudy
4:53 AM 59.0 °F 57.9 °F 96% 29.96 in 10.0 mi Calm Calm - N/A   Overcast
5:49 AM 60.8 °F 57.2 °F 88% 29.99 in 10.0 mi Calm Calm - N/A   Overcast
5:53 AM 60.1 °F 57.9 °F 93% 29.97 in 10.0 mi Calm Calm - N/A   Overcast
6:53 AM 59.0 °F 57.9 °F 96% 29.99 in 10.0 mi Calm Calm - N/A   Overcast
7:10 AM 59.0 °F 57.2 °F 94% 30.00 in 10.0 mi Calm Calm - N/A   Overcast
7:53 AM 59.0 °F 57.9 °F 96% 29.99 in 10.0 mi Calm Calm - N/A   Overcast
9:53 AM 62.1 °F 57.9 °F 86% 30.03 in 10.0 mi Calm Calm - N/A   Overcast
10:46 AM 62.6 °F 57.2 °F 82% 30.04 in 10.0 mi Calm Calm - N/A   Mostly Cloudy
10:53 AM 64.0 °F 57.9 °F 80% 30.03 in 10.0 mi Calm Calm - N/A   Scattered Clouds
11:05 AM 64.4 °F 59.0 °F 83% 30.04 in 10.0 mi Calm Calm - N/A   Mostly Cloudy
11:26 AM 64.4 °F 57.2 °F 77% 30.05 in 10.0 mi Calm Calm - N/A   Overcast
12:53 PM 69.1 °F 60.1 °F 73% 30.02 in 10.0 mi Calm Calm - N/A   Scattered Clouds
1:53 PM 72.0 °F 57.9 °F 61% 30.00 in 10.0 mi West 3.5 mph - N/A   Clear
2:53 PM 73.0 °F 57.0 °F 57% 29.98 in 10.0 mi WNW 5.8 mph - N/A   Partly Cloudy
3:53 PM 75.0 °F 55.9 °F 51% 29.97 in 10.0 mi West 4.6 mph - N/A   Clear
4:53 PM 75.9 °F 55.0 °F 48% 29.97 in 10.0 mi West 3.5 mph - N/A   Partly Cloudy
5:53 PM 75.0 °F 55.9 °F 51% 29.98 in 10.0 mi Calm Calm - N/A   Clear
7:53 PM 60.1 °F 57.9 °F 93% 30.04 in 10.0 mi ENE 3.5 mph - N/A   Clear
8:53 PM 59.0 °F 57.0 °F 93% 30.07 in 10.0 mi Calm Calm - N/A   Clear
9:53 PM 55.9 °F 55.0 °F 97% 30.09 in 1.0 mi Calm Calm - N/A   Clear
10:01 PM 55.4 °F 55.4 °F 100% 30.10 in 0.5 mi Calm Calm - N/A Fog Fog
10:23 PM 55.4 °F 55.4 °F 100% 30.10 in 2.0 mi Calm Calm - N/A   Clear
10:27 PM 53.6 °F 53.6 °F 100% 30.10 in 1.0 mi Calm Calm - N/A   Mist
10:34 PM 55.4 °F 53.6 °F 94% 30.10 in 0.5 mi Calm Calm - N/A Fog Fog
10:48 PM 53.6 °F 53.6 °F 100% 30.10 in 1.2 mi Calm Calm - N/A   Partly Cloudy
10:53 PM 54.0 °F 54.0 °F 100% 30.10 in 1.5 mi Calm Calm - N/A   Partly Cloudy
10:59 PM 53.6 °F 53.6 °F 100% 30.11 in 0.8 mi Calm Calm - N/A   Mist
11:26 PM 53.6 °F 53.6 °F 100% 30.11 in 1.2 mi Calm Calm - N/A   Partly Cloudy
11:29 PM 53.6 °F 53.6 °F 100% 30.11 in 3.0 mi Calm Calm - N/A   Partly Cloudy
11:36 PM 53.6 °F 53.6 °F 100% 30.11 in 1.8 mi Calm Calm - N/A   Partly Cloudy
11:53 PM 53.1 °F 53.1 °F 100% 30.11 in 1.0 mi Calm Calm - N/A   Mist